Flag for U.S.A. Weather past 2 weeks in Kailua-Kona, Hawaii, U.S.A.

Now
81 °F

Sunny.


Feels Like: 84 °F
Forecast: 68 / 77 °F
Wind: 9 mph from Southwest

Location: Keahole Airport

Current Time: Dec 19, 2014 at 3:19:56 PM

Latest Report: Dec 19, 2014 at 2:53 PM


Visibility: 10 mi

Pressure: 29.95 "Hg

Humidity: 65%

Dew point: 68 °F

Location of Kailua-KonaLocation

Historic Weather in Kailua-Kona — Graph

°F

Kailua-Kona temperature yesterday

Maximum temperature yesterday: 81 °F (at 12:53 PM)
Minimum temperature yesterday: 68 °F (at 6:53 AM)
Average temperature yesterday: 76 °F

Past Weeks' High & Low Weather Summary

 TemperatureHumidityPressure
High87 °F (Dec 13, 11:53 AM)78% (Dec 5, 5:34 AM)30.14 "Hg (Dec 5, 5:34 AM)
Low68 °F (Dec 18, 6:53 AM)40% (Dec 13, 3:53 PM)29.89 "Hg (Dec 4, 2:53 PM)
Average76 °F64%30.03 "Hg
* Reported Dec 4 1:53 PM — Dec 19 1:53 PM, Kailua-Kona, Weather by CustomWeather, © 2014

Note: Actual official high and low records may vary slightly from our data, if they occured in-between our weather recording intervals... More about our weather records

Advertising

Kailua-Kona weather history for previous 24 hours

 ConditionsComfort  
Time TempWeatherWind HumidityBarometerVisibility
1:53 PM
Dec 19
81 °FSunny.10 mph65%29.97 "Hg10 mi
12:53 PM81 °FSunny.8 mph62%29.99 "Hg10 mi
11:53 AM80 °FSunny.8 mph62%30.03 "Hg10 mi
10:53 AM80 °FSunny.7 mph62%30.05 "Hg10 mi
9:53 AM79 °FSunny.6 mph58%30.06 "Hg10 mi
8:53 AM78 °FSunny.No wind56%30.08 "Hg10 mi
7:53 AM74 °FSunny.No wind60%30.07 "Hg10 mi
6:53 AM71 °FSunny.5 mph66%30.06 "Hg10 mi
5:53 AM70 °FClear.5 mph66%30.05 "Hg10 mi
4:53 AM70 °FClear.3 mph66%30.05 "Hg10 mi
3:53 AM72 °FClear.3 mph66%30.04 "Hg10 mi
2:53 AM72 °FClear.No wind68%30.03 "Hg10 mi
1:53 AM72 °FClear.7 mph71%30.06 "Hg10 mi
12:53 AM75 °FClear.3 mph66%30.06 "Hg10 mi
11:53 PM
Dec 18
75 °FClear.7 mph66%30.08 "Hg10 mi
10:53 PM74 °FClear.9 mph69%30.08 "Hg10 mi
9:53 PM75 °FClear.5 mph71%30.07 "Hg10 mi
8:53 PM76 °FPassing clouds.5 mph72%30.07 "Hg10 mi
7:53 PM77 °FClear.3 mph71%30.05 "Hg10 mi
6:53 PM78 °FOvercast.3 mph66%30.04 "Hg10 mi
5:53 PM78 °FPassing clouds.6 mph69%30.02 "Hg10 mi
4:53 PM79 °FOvercast.8 mph69%30.01 "Hg10 mi
3:53 PM79 °FPartly sunny.7 mph72%30.00 "Hg9 mi
Weather by CustomWeather, © 2014

See weather overviewHow to use our weather pages